When you browse on this site, cookies collect data to enhance your experience and personalize the content and advertising you see.
Visit our Privacy Policy to learn more. By continuing to use the site, you agree to this use of cookies and data.
  • In Hungary
  • List of Countries
  • For 7 days
  • Water Temperature
  • Satellite Maps
  • Weather Map
  • News
  • Weather Widgets
  • user-avatar
    Login

    Hourly Weather Kuandian

    Today, 23 February, Saturday

    Time Temperature Precipitation Wind Pressure Humidity
    00:00 -2°C° 0 mm 2 mps 738 mmHg 59%
    01:00 -2°C° 0 mm 2 mps 738 mmHg 59%
    02:00 -2°C° 0 mm 2 mps 738 mmHg 57%
    03:00 -2°C° 0 mm 2 mps 738 mmHg 57%
    04:00 -2°C° 0 mm 2 mps 738 mmHg 56%
    05:00 0°C° 0 mm 1 mps 738 mmHg 56%
    06:00 0°C° 0 mm 1 mps 738 mmHg 53%
    07:00 +1°C° 0 mm 1 mps 739 mmHg 51%
    08:00 +1°C° 0 mm 1 mps 739 mmHg 49%
    09:00 +2°C° 0 mm 2 mps 739 mmHg 42%
    10:00 +4°C° 0 mm 2 mps 738 mmHg 36%
    11:00 +6°C° 0 mm 2 mps 738 mmHg 30%
    12:00 +6°C° 0 mm 2 mps 738 mmHg 30%
    13:00 +7°C° 0 mm 2 mps 738 mmHg 29%
    14:00 +8°C° 0 mm 2 mps 737 mmHg 29%
    15:00 +7°C° 0 mm 1 mps 737 mmHg 34%
    16:00 +6°C° 0 mm 1 mps 737 mmHg 40%
    17:00 +3°C° 0 mm 0 mps 736 mmHg 45%
    18:00 +2°C° 0 mm 0 mps 737 mmHg 46%
    19:00 +1°C° 0 mm 0 mps 737 mmHg 48%
    20:00 +1°C° 0 mm 0 mps 737 mmHg 49%
    21:00 0°C° 0 mm 0 mps 737 mmHg 50%
    22:00 +1°C° 0 mm 1 mps 737 mmHg 51%
    23:00 +1°C° 0 mm 1 mps 737 mmHg 53%

    Tomorrow, 24 February, Sunday

    Time Temperature Precipitation Wind Pressure Humidity
    00:00 +1°C° 0 mm 1 mps 737 mmHg 54%
    01:00 +1°C° 0 mm 1 mps 737 mmHg 54%
    02:00 0°C° 0 mm 1 mps 736 mmHg 55%
    03:00 0°C° 0 mm 1 mps 736 mmHg 56%
    04:00 0°C° 0 mm 1 mps 736 mmHg 56%
    05:00 0°C° 0 mm 1 mps 736 mmHg 56%
    06:00 +1°C° 0 mm 1 mps 736 mmHg 54%
    07:00 +1°C° 0 mm 1 mps 736 mmHg 51%
    08:00 +2°C° 0 mm 1 mps 736 mmHg 48%
    09:00 +3°C° 0 mm 1 mps 736 mmHg 44%
    10:00 +4°C° 0 mm 2 mps 736 mmHg 40%
    11:00 +6°C° 0 mm 2 mps 736 mmHg 36%
    12:00 +6°C° 0 mm 2 mps 735 mmHg 37%
    13:00 +5°C° 0 mm 3 mps 735 mmHg 38%
    14:00 +7°C° 0 mm 3 mps 734 mmHg 39%
    15:00 +5°C° 0 mm 3 mps 734 mmHg 43%
    16:00 +3°C° 0 mm 3 mps 734 mmHg 48%
    17:00 +3°C° 0 mm 2 mps 734 mmHg 52%
    18:00 +2°C° 0 mm 2 mps 734 mmHg 55%
    19:00 -1°C° 0 mm 2 mps 735 mmHg 58%
    20:00 -2°C° 0 mm 2 mps 735 mmHg 62%
    21:00 0°C° 0 mm 1 mps 736 mmHg 61%
    22:00 0°C° 0 mm 1 mps 736 mmHg 61%
    23:00 0°C° 0 mm 1 mps 736 mmHg 61%

    Day after tomorrow, 25 February, Monday

    Time Temperature Precipitation Wind Pressure Humidity
    00:00 -1°C° 0 mm 1 mps 736 mmHg 61%
    01:00 -1°C° 0 mm 1 mps 736 mmHg 60%
    02:00 -1°C° 0 mm 1 mps 736 mmHg 59%
    03:00 -1°C° 0 mm 1 mps 737 mmHg 58%
    04:00 -1°C° 0 mm 1 mps 737 mmHg 57%
    05:00 -1°C° 0 mm 1 mps 737 mmHg 55%
    06:00 -1°C° 0 mm 1 mps 737 mmHg 51%
    07:00 0°C° 0 mm 1 mps 737 mmHg 47%
    08:00 0°C° 0 mm 1 mps 738 mmHg 43%
    09:00 -1°C° 0 mm 2 mps 738 mmHg 38%
    10:00 +1°C° 0 mm 2 mps 738 mmHg 33%
    11:00 +3°C° 0 mm 2 mps 738 mmHg 28%
    12:00 +3°C° 0 mm 2 mps 738 mmHg 27%
    13:00 +4°C° 0 mm 2 mps 737 mmHg 26%
    14:00 +4°C° 0 mm 2 mps 737 mmHg 26%
    15:00 +3°C° 0 mm 2 mps 737 mmHg 30%
    16:00 +2°C° 0 mm 2 mps 737 mmHg 35%
    17:00 +1°C° 0 mm 2 mps 737 mmHg 39%
    18:00 -1°C° 0 mm 2 mps 737 mmHg 42%
    19:00 -2°C° 0 mm 2 mps 737 mmHg 45%
    20:00 -1°C° 0 mm 1 mps 738 mmHg 47%
    21:00 -1°C° 0 mm 1 mps 738 mmHg 47%
    22:00 -1°C° 0 mm 1 mps 738 mmHg 46%
    23:00 -2°C° 0 mm 1 mps 738 mmHg 46%

    26 February, Tuesday

    Time Temperature Precipitation Wind Pressure Humidity
    00:00 -3°C° 0 mm 0 mps 738 mmHg 45%
    01:00 -3°C° 0 mm 0 mps 738 mmHg 44%
    02:00 -3°C° 0 mm 0 mps 738 mmHg 43%
    03:00 -3°C° 0 mm 0 mps 738 mmHg 42%
    04:00 -3°C° 0 mm 0 mps 738 mmHg 42%
    05:00 -3°C° 0 mm 0 mps 738 mmHg 41%
    06:00 -2°C° 0 mm 0 mps 739 mmHg 39%
    07:00 -1°C° 0 mm 0 mps 739 mmHg 36%
    08:00 -1°C° 0 mm 0 mps 740 mmHg 34%
    09:00 +2°C° 0 mm 1 mps 740 mmHg 32%
    10:00 +4°C° 0 mm 1 mps 740 mmHg 30%
    11:00 +5°C° 0 mm 1 mps 740 mmHg 28%
    12:00 +5°C° 0 mm 2 mps 739 mmHg 28%
    13:00 +6°C° 0 mm 2 mps 739 mmHg 27%
    14:00 +6°C° 0 mm 2 mps 738 mmHg 27%
    15:00 +5°C° 0 mm 2 mps 738 mmHg 32%
    16:00 +5°C° 0 mm 1 mps 738 mmHg 36%
    17:00 +4°C° 0 mm 1 mps 738 mmHg 40%
    18:00 +3°C° 0 mm 1 mps 738 mmHg 43%
    19:00 +2°C° 0 mm 1 mps 739 mmHg 47%
    20:00 0°C° 0 mm 1 mps 739 mmHg 50%
    21:00 0°C° 0 mm 1 mps 739 mmHg 50%
    22:00 0°C° 0 mm 1 mps 739 mmHg 51%
    23:00 0°C° 0 mm 1 mps 739 mmHg 51%

    27 February, Wednesday

    Time Temperature Precipitation Wind Pressure Humidity
    00:00 0°C° 0 mm 1 mps 739 mmHg 51%
    01:00 -1°C° 0 mm 1 mps 739 mmHg 50%
    02:00 -1°C° 0 mm 1 mps 739 mmHg 50%
    03:00 -1°C° 0 mm 1 mps 739 mmHg 49%
    04:00 -1°C° 0 mm 1 mps 739 mmHg 49%
    05:00 -1°C° 0 mm 1 mps 738 mmHg 49%
    06:00 0°C° 0 mm 1 mps 738 mmHg 46%
    07:00 +1°C° 0 mm 1 mps 739 mmHg 42%
    08:00 +1°C° 0 mm 1 mps 739 mmHg 39%
    09:00 +3°C° 0 mm 1 mps 738 mmHg 35%
    10:00 +5°C° 0 mm 1 mps 738 mmHg 30%
    11:00 +7°C° 0 mm 1 mps 738 mmHg 25%
    12:00 +7°C° 0 mm 1 mps 737 mmHg 27%
    13:00 +6°C° 0 mm 2 mps 737 mmHg 29%
    14:00 +6°C° 0 mm 2 mps 737 mmHg 31%
    15:00 +5°C° 0 mm 2 mps 736 mmHg 36%
    16:00 +5°C° 0 mm 1 mps 736 mmHg 41%
    17:00 +3°C° 0 mm 0 mps 736 mmHg 47%
    18:00 +2°C° 0 mm 0 mps 736 mmHg 49%
    19:00 +1°C° 0 mm 0 mps 736 mmHg 51%
    20:00 0°C° 0 mm 0 mps 736 mmHg 53%
    21:00 0°C° 0 mm 0 mps 736 mmHg 54%
    22:00 0°C° 0 mm 0 mps 736 mmHg 54%
    23:00 0°C° 0 mm 0 mps 736 mmHg 55%

    28 February, Thursday

    Time Temperature Precipitation Wind Pressure Humidity
    00:00 -1°C° 0 mm 0 mps 736 mmHg 55%
    01:00 -1°C° 0 mm 0 mps 736 mmHg 55%
    02:00 -1°C° 0 mm 0 mps 735 mmHg 55%
    03:00 -1°C° 0 mm 0 mps 735 mmHg 55%
    04:00 -1°C° 0 mm 0 mps 735 mmHg 55%
    05:00 -1°C° 0 mm 0 mps 735 mmHg 55%
    06:00 0°C° 0 mm 0 mps 735 mmHg 52%
    07:00 +1°C° 0 mm 0 mps 735 mmHg 49%
    08:00 +1°C° 0 mm 0 mps 735 mmHg 46%
    09:00 +4°C° 0 mm 1 mps 735 mmHg 44%
    10:00 +6°C° 0 mm 1 mps 735 mmHg 41%
    11:00 +7°C° 0 mm 2 mps 735 mmHg 38%
    12:00 +7°C° 0 mm 2 mps 734 mmHg 38%
    13:00 +8°C° 0 mm 3 mps 734 mmHg 39%
    14:00 +8°C° 0 mm 3 mps 734 mmHg 39%
    15:00 +7°C° 0 mm 3 mps 734 mmHg 44%
    16:00 +5°C° 0 mm 3 mps 734 mmHg 48%
    17:00 +5°C° 0 mm 2 mps 734 mmHg 53%
    18:00 +4°C° 0 mm 2 mps 734 mmHg 58%
    19:00 +3°C° 0 mm 1 mps 734 mmHg 63%
    20:00 +2°C° 0 mm 1 mps 735 mmHg 68%
    21:00 +2°C° 0 mm 1 mps 735 mmHg 68%
    22:00 0°C° 0 mm 0 mps 735 mmHg 69%
    23:00 0°C° 0 mm 0 mps 735 mmHg 70%
    Show more